Time,TemperatureF,DewpointF,PressureIn,WindDirection,WindDirectionDegrees,WindSpeedMPH,WindSpeedGustMPH,Humidity,HourlyPrecipIn,Conditions,Clouds,dailyrainin,SoftwareType,DateUTC
2013-06-07 00:01:00,57.9,57.6,30.02,SE,142,0.0,0.0,99,0.07,,,0.00,Wunderground v.1.15,2013-06-07 04:01:00,
2013-06-07 00:02:00,57.9,57.6,30.02,SE,142,0.0,0.0,99,0.07,,,0.00,Wunderground v.1.15,2013-06-07 04:02:00,
2013-06-07 00:04:00,57.9,57.6,30.02,SE,142,0.0,0.0,99,0.07,,,0.00,Wunderground v.1.15,2013-06-07 04:04:00,
2013-06-07 00:08:00,57.9,57.6,30.02,SE,142,0.0,0.0,99,0.05,,,0.00,Wunderground v.1.15,2013-06-07 04:08:00,
2013-06-07 00:09:00,57.9,57.6,30.02,SE,142,0.0,0.0,99,0.05,,,0.01,Wunderground v.1.15,2013-06-07 04:09:00,
2013-06-07 00:14:00,57.9,57.6,30.01,SE,142,0.0,0.0,99,0.05,,,0.01,Wunderground v.1.15,2013-06-07 04:14:00,
2013-06-07 00:19:00,57.9,57.6,30.01,South,172,0.0,2.0,99,0.05,,,0.01,Wunderground v.1.15,2013-06-07 04:19:00,
2013-06-07 00:24:00,57.9,57.6,30.00,South,172,0.0,0.0,99,0.04,,,0.02,Wunderground v.1.15,2013-06-07 04:24:00,
2013-06-07 00:29:00,57.8,57.5,30.00,South,172,0.0,0.0,99,0.04,,,0.02,Wunderground v.1.15,2013-06-07 04:29:00,
2013-06-07 00:35:00,57.8,57.5,30.00,South,172,0.0,0.0,99,0.04,,,0.02,Wunderground v.1.15,2013-06-07 04:35:00,
2013-06-07 00:40:00,57.8,57.5,30.00,South,172,0.0,0.0,99,0.00,,,0.02,Wunderground v.1.15,2013-06-07 04:40:00,
2013-06-07 00:45:00,57.7,57.4,30.00,WSW,243,0.0,1.0,99,0.00,,,0.03,Wunderground v.1.15,2013-06-07 04:45:00,
2013-06-07 00:50:00,57.7,57.4,30.00,WSW,243,0.0,0.0,99,0.08,,,0.04,Wunderground v.1.15,2013-06-07 04:50:00,
2013-06-07 00:55:00,57.7,57.4,29.99,WSW,243,0.0,0.0,99,0.08,,,0.04,Wunderground v.1.15,2013-06-07 04:55:00,
2013-06-07 01:00:00,57.7,57.4,29.99,WSW,243,0.0,0.0,99,0.06,,,0.04,Wunderground v.1.15,2013-06-07 05:00:00,
2013-06-07 01:06:00,57.7,57.4,29.99,SE,132,0.0,1.0,99,0.04,,,0.04,Wunderground v.1.15,2013-06-07 05:06:00,
2013-06-07 01:11:00,57.7,57.4,29.99,SE,133,0.0,0.0,99,0.00,,,0.04,Wunderground v.1.15,2013-06-07 05:11:00,
2013-06-07 01:16:00,57.7,57.7,29.99,SE,133,0.0,0.0,100,0.00,,,0.04,Wunderground v.1.15,2013-06-07 05:16:00,
2013-06-07 01:21:00,57.7,57.4,29.98,SE,133,0.0,0.0,99,0.00,,,0.04,Wunderground v.1.15,2013-06-07 05:21:00,
2013-06-07 01:26:00,57.7,57.4,29.99,South,174,0.0,0.0,99,0.00,,,0.05,Wunderground v.1.15,2013-06-07 05:26:00,
2013-06-07 01:32:00,57.8,57.5,29.99,South,174,0.0,0.0,99,0.00,,,0.05,Wunderground v.1.15,2013-06-07 05:32:00,
2013-06-07 01:37:00,57.8,57.8,29.98,South,174,0.0,0.0,100,0.00,,,0.05,Wunderground v.1.15,2013-06-07 05:37:00,
2013-06-07 01:42:00,57.8,57.8,29.98,SSE,152,0.0,0.0,100,0.00,,,0.05,Wunderground v.1.15,2013-06-07 05:42:00,
2013-06-07 01:48:00,57.8,57.8,29.98,ESE,120,0.0,1.0,100,0.00,,,0.05,Wunderground v.1.15,2013-06-07 05:48:00,
2013-06-07 01:54:00,57.9,57.9,29.97,SE,125,0.0,1.0,100,0.00,,,0.05,Wunderground v.1.15,2013-06-07 05:54:00,
2013-06-07 01:59:00,57.9,57.9,29.97,South,178,0.0,1.0,100,0.00,,,0.05,Wunderground v.1.15,2013-06-07 05:59:00,
2013-06-07 02:05:00,57.9,57.9,29.97,South,176,0.0,1.0,100,0.00,,,0.05,Wunderground v.1.15,2013-06-07 06:05:00,
2013-06-07 02:10:00,58.0,58.0,29.97,South,176,0.0,0.0,100,0.00,,,0.05,Wunderground v.1.15,2013-06-07 06:10:00,
2013-06-07 02:15:00,58.0,58.0,29.97,South,176,0.0,0.0,100,0.00,,,0.05,Wunderground v.1.15,2013-06-07 06:15:00,
2013-06-07 02:21:00,58.0,58.0,29.97,SSW,201,0.0,0.0,100,0.00,,,0.05,Wunderground v.1.15,2013-06-07 06:21:00,
2013-06-07 02:26:00,58.1,58.1,29.96,SSW,201,0.0,0.0,100,0.00,,,0.05,Wunderground v.1.15,2013-06-07 06:26:00,
2013-06-07 02:32:00,58.1,58.1,29.96,ESE,120,0.0,0.0,100,0.00,,,0.05,Wunderground v.1.15,2013-06-07 06:32:00,
2013-06-07 02:38:00,58.2,58.2,29.96,South,171,0.0,0.0,100,0.00,,,0.05,Wunderground v.1.15,2013-06-07 06:38:00,
2013-06-07 02:43:00,58.2,58.2,29.96,SSW,200,0.0,1.0,100,0.00,,,0.05,Wunderground v.1.15,2013-06-07 06:43:00,
2013-06-07 02:49:00,58.2,58.2,29.96,SSW,200,0.0,1.0,100,0.00,,,0.06,Wunderground v.1.15,2013-06-07 06:49:00,
2013-06-07 02:54:00,58.2,58.2,29.96,SSE,165,0.0,0.0,100,0.00,,,0.06,Wunderground v.1.15,2013-06-07 06:54:00,
2013-06-07 02:59:00,58.3,58.3,29.96,SSE,166,0.0,2.0,100,0.00,,,0.06,Wunderground v.1.15,2013-06-07 06:59:00,
2013-06-07 03:04:00,58.3,58.3,29.96,SW,236,0.0,1.0,100,0.00,,,0.06,Wunderground v.1.15,2013-06-07 07:04:00,
2013-06-07 03:10:00,58.3,58.3,29.95,SW,236,0.0,0.0,100,0.00,,,0.06,Wunderground v.1.15,2013-06-07 07:10:00,
2013-06-07 03:15:00,58.3,58.3,29.96,ENE,61,0.0,1.0,100,0.00,,,0.06,Wunderground v.1.15,2013-06-07 07:15:00,
2013-06-07 03:20:00,58.4,58.4,29.95,North,10,0.0,0.0,100,0.00,,,0.06,Wunderground v.1.15,2013-06-07 07:20:00,
2013-06-07 03:25:00,58.4,58.4,29.95,ESE,105,0.0,0.0,100,0.00,,,0.06,Wunderground v.1.15,2013-06-07 07:25:00,
2013-06-07 03:30:00,58.4,58.4,29.95,ESE,104,0.0,0.0,100,0.00,,,0.07,Wunderground v.1.15,2013-06-07 07:30:00,
2013-06-07 03:35:00,58.4,58.4,29.95,ESE,109,0.0,0.0,100,0.09,,,0.08,Wunderground v.1.15,2013-06-07 07:35:00,
2013-06-07 03:40:00,58.4,58.4,29.95,East,83,0.0,1.0,100,0.08,,,0.08,Wunderground v.1.15,2013-06-07 07:40:00,
2013-06-07 03:46:00,58.3,58.3,29.95,West,276,1.0,1.0,100,0.06,,,0.09,Wunderground v.1.15,2013-06-07 07:46:00,
2013-06-07 03:51:00,58.3,58.3,29.94,ESE,111,0.0,2.0,100,0.11,,,0.10,Wunderground v.1.15,2013-06-07 07:51:00,
2013-06-07 03:56:00,58.2,58.2,29.94,ESE,115,0.0,2.0,100,0.08,,,0.11,Wunderground v.1.15,2013-06-07 07:56:00,
2013-06-07 04:02:00,58.1,58.1,29.94,SSW,196,0.0,2.0,100,0.08,,,0.11,Wunderground v.1.15,2013-06-07 08:02:00,
2013-06-07 04:07:00,58.0,58.0,29.94,SSE,165,1.0,2.0,100,0.05,,,0.12,Wunderground v.1.15,2013-06-07 08:07:00,
2013-06-07 04:13:00,58.0,58.0,29.94,East,99,1.0,1.0,100,0.05,,,0.12,Wunderground v.1.15,2013-06-07 08:13:00,
2013-06-07 04:19:00,57.9,57.9,29.94,SW,224,1.0,2.0,100,0.05,,,0.12,Wunderground v.1.15,2013-06-07 08:19:00,
2013-06-07 04:24:00,57.9,57.9,29.94,NE,42,0.0,1.0,100,0.00,,,0.12,Wunderground v.1.15,2013-06-07 08:24:00,
2013-06-07 04:29:00,57.8,57.8,29.94,NE,48,0.0,1.0,100,0.00,,,0.12,Wunderground v.1.15,2013-06-07 08:29:00,
2013-06-07 04:34:00,57.8,57.8,29.94,NE,48,0.0,0.0,100,0.00,,,0.12,Wunderground v.1.15,2013-06-07 08:34:00,
2013-06-07 04:39:00,57.7,57.7,29.94,SSW,213,0.0,3.0,100,0.00,,,0.12,Wunderground v.1.15,2013-06-07 08:39:00,
2013-06-07 04:45:00,57.7,57.7,29.94,SW,229,0.0,1.0,100,0.00,,,0.12,Wunderground v.1.15,2013-06-07 08:45:00,
2013-06-07 04:50:00,57.7,57.7,29.93,WSW,240,0.0,0.0,100,0.00,,,0.13,Wunderground v.1.15,2013-06-07 08:50:00,
2013-06-07 04:55:00,57.7,57.7,29.94,South,184,0.0,1.0,100,0.00,,,0.13,Wunderground v.1.15,2013-06-07 08:55:00,
2013-06-07 05:00:00,57.7,57.7,29.93,South,184,0.0,1.0,100,0.00,,,0.13,Wunderground v.1.15,2013-06-07 09:00:00,
2013-06-07 05:06:00,57.6,57.6,29.93,South,184,0.0,2.0,100,0.04,,,0.14,Wunderground v.1.15,2013-06-07 09:06:00,
2013-06-07 05:11:00,57.6,57.6,29.93,South,184,0.0,1.0,100,0.09,,,0.15,Wunderground v.1.15,2013-06-07 09:11:00,
2013-06-07 05:17:00,57.5,57.5,29.93,WNW,292,0.0,2.0,100,0.07,,,0.15,Wunderground v.1.15,2013-06-07 09:17:00,
2013-06-07 05:22:00,57.4,57.4,29.93,WNW,292,0.0,1.0,100,0.05,,,0.16,Wunderground v.1.15,2013-06-07 09:22:00,
2013-06-07 05:29:00,57.4,57.4,29.93,South,180,0.0,1.0,100,0.05,,,0.16,Wunderground v.1.15,2013-06-07 09:29:00,
2013-06-07 05:34:00,57.4,57.4,29.93,West,264,0.0,2.0,100,0.05,,,0.17,Wunderground v.1.15,2013-06-07 09:34:00,
2013-06-07 05:40:00,57.4,57.4,29.93,SSW,202,0.0,2.0,100,0.10,,,0.18,Wunderground v.1.15,2013-06-07 09:40:00,
2013-06-07 05:47:00,57.3,57.3,29.93,South,186,0.0,1.0,100,0.21,,,0.20,Wunderground v.1.15,2013-06-07 09:47:00,
2013-06-07 06:14:00,56.9,56.9,29.93,ENE,76,0.0,1.0,100,0.09,,,0.25,Wunderground v.1.15,2013-06-07 10:14:00,
2013-06-07 06:23:00,56.8,56.8,29.93,South,180,0.0,0.0,100,0.12,,,0.27,Wunderground v.1.15,2013-06-07 10:23:00,
2013-06-07 06:28:00,56.7,56.7,29.93,ESE,106,0.0,1.0,100,0.11,,,0.27,Wunderground v.1.15,2013-06-07 10:28:00,
2013-06-07 06:40:00,56.7,56.7,29.93,SE,134,1.0,1.0,100,0.07,,,0.28,Wunderground v.1.15,2013-06-07 10:40:00,
2013-06-07 06:50:00,56.7,56.7,29.93,WSW,246,1.0,1.0,100,0.05,,,0.29,Wunderground v.1.15,2013-06-07 10:50:00,
2013-06-07 06:56:00,56.6,56.6,29.93,WSW,246,0.0,1.0,100,0.05,,,0.30,Wunderground v.1.15,2013-06-07 10:56:00,
2013-06-07 07:01:00,56.7,56.7,29.93,WSW,246,0.0,0.0,100,0.05,,,0.30,Wunderground v.1.15,2013-06-07 11:01:00,
2013-06-07 07:09:00,56.6,56.6,29.92,ENE,73,0.0,1.0,100,0.06,,,0.31,Wunderground v.1.15,2013-06-07 11:09:00,
2013-06-07 07:32:00,56.6,56.6,29.92,ESE,109,1.0,1.0,100,0.00,,,0.32,Wunderground v.1.15,2013-06-07 11:32:00,
2013-06-07 07:39:00,56.6,56.6,29.92,East,83,1.0,2.0,100,0.00,,,0.32,Wunderground v.1.15,2013-06-07 11:39:00,
2013-06-07 07:45:00,56.6,56.6,29.92,East,83,1.0,2.0,100,0.00,,,0.32,Wunderground v.1.15,2013-06-07 11:45:00,
2013-06-07 07:50:00,56.6,56.6,29.92,ENE,68,1.0,1.0,100,0.00,,,0.33,Wunderground v.1.15,2013-06-07 11:50:00,
2013-06-07 07:55:00,56.6,56.6,29.92,ENE,68,0.0,1.0,100,0.00,,,0.33,Wunderground v.1.15,2013-06-07 11:55:00,
2013-06-07 08:00:00,56.7,56.7,29.91,East,98,0.0,0.0,100,0.05,,,0.34,Wunderground v.1.15,2013-06-07 12:00:00,
2013-06-07 08:06:00,56.7,56.7,29.92,SE,135,1.0,2.0,100,0.05,,,0.34,Wunderground v.1.15,2013-06-07 12:06:00,
2013-06-07 08:12:00,56.8,56.8,29.91,West,263,0.0,2.0,100,0.08,,,0.35,Wunderground v.1.15,2013-06-07 12:12:00,
2013-06-07 08:17:00,56.9,56.9,29.91,East,83,1.0,2.0,100,0.06,,,0.35,Wunderground v.1.15,2013-06-07 12:17:00,
2013-06-07 08:22:00,57.0,57.0,29.91,ENE,57,1.0,1.0,100,0.06,,,0.36,Wunderground v.1.15,2013-06-07 12:22:00,
2013-06-07 08:27:00,57.1,57.1,29.91,ENE,64,1.0,2.0,100,0.06,,,0.36,Wunderground v.1.15,2013-06-07 12:27:00,
2013-06-07 08:32:00,57.2,57.2,29.91,East,101,1.0,2.0,100,0.04,,,0.37,Wunderground v.1.15,2013-06-07 12:32:00,
2013-06-07 08:38:00,57.4,57.4,29.91,East,101,0.0,2.0,100,0.04,,,0.37,Wunderground v.1.15,2013-06-07 12:38:00,
2013-06-07 08:44:00,57.5,57.5,29.91,East,86,0.0,1.0,100,0.04,,,0.37,Wunderground v.1.15,2013-06-07 12:44:00,
2013-06-07 08:49:00,57.6,57.6,29.91,WSW,247,0.0,1.0,100,0.04,,,0.38,Wunderground v.1.15,2013-06-07 12:49:00,
2013-06-07 08:54:00,57.7,57.7,29.91,NE,53,0.0,1.0,100,0.07,,,0.39,Wunderground v.1.15,2013-06-07 12:54:00,
2013-06-07 09:13:00,57.9,57.9,29.90,East,91,0.0,1.0,100,0.08,,,0.41,Wunderground v.1.15,2013-06-07 13:13:00,
2013-06-07 09:23:00,58.0,58.0,29.91,ENE,72,0.0,0.0,100,0.06,,,0.42,Wunderground v.1.15,2013-06-07 13:23:00,
2013-06-07 09:29:00,58.1,58.1,29.91,ENE,71,1.0,1.0,100,0.07,,,0.43,Wunderground v.1.15,2013-06-07 13:29:00,
2013-06-07 09:34:00,58.1,58.1,29.91,ESE,107,1.0,1.0,100,0.06,,,0.43,Wunderground v.1.15,2013-06-07 13:34:00,
2013-06-07 09:40:00,58.2,58.2,29.90,East,97,1.0,1.0,100,0.05,,,0.44,Wunderground v.1.15,2013-06-07 13:40:00,
2013-06-07 09:45:00,58.2,58.2,29.91,East,91,1.0,3.0,100,0.07,,,0.45,Wunderground v.1.15,2013-06-07 13:45:00,
2013-06-07 09:50:00,58.3,58.3,29.90,East,91,0.0,0.0,100,0.07,,,0.45,Wunderground v.1.15,2013-06-07 13:50:00,
2013-06-07 09:56:00,58.4,58.4,29.90,WNW,296,0.0,2.0,100,0.07,,,0.46,Wunderground v.1.15,2013-06-07 13:56:00,
2013-06-07 10:01:00,58.5,58.5,29.90,East,90,0.0,1.0,100,0.14,,,0.47,Wunderground v.1.15,2013-06-07 14:01:00,
2013-06-07 10:36:00,58.7,58.7,29.89,ESE,105,0.0,2.0,100,0.08,,,0.56,Wunderground v.1.15,2013-06-07 14:36:00,
2013-06-07 10:41:00,58.8,58.8,29.89,ESE,106,0.0,1.0,100,0.09,,,0.57,Wunderground v.1.15,2013-06-07 14:41:00,
2013-06-07 10:47:00,58.8,58.8,29.89,East,84,0.0,2.0,100,0.09,,,0.57,Wunderground v.1.15,2013-06-07 14:47:00,
2013-06-07 10:54:00,58.9,58.9,29.89,East,93,1.0,2.0,100,0.07,,,0.58,Wunderground v.1.15,2013-06-07 14:54:00,
2013-06-07 11:00:00,58.9,58.9,29.89,WSW,255,1.0,1.0,100,0.08,,,0.59,Wunderground v.1.15,2013-06-07 15:00:00,
2013-06-07 11:07:00,58.9,58.9,29.89,East,101,1.0,1.0,100,0.07,,,0.60,Wunderground v.1.15,2013-06-07 15:07:00,
2013-06-07 11:12:00,59.0,59.0,29.89,SE,138,0.0,0.0,100,0.09,,,0.60,Wunderground v.1.15,2013-06-07 15:12:00,
2013-06-07 11:17:00,59.0,59.0,29.89,ENE,74,1.0,4.0,100,0.09,,,0.61,Wunderground v.1.15,2013-06-07 15:17:00,
2013-06-07 11:22:00,59.0,59.0,29.89,ESE,117,1.0,1.0,100,0.06,,,0.61,Wunderground v.1.15,2013-06-07 15:22:00,
2013-06-07 11:27:00,59.1,59.1,29.89,SSW,201,1.0,6.0,100,0.05,,,0.62,Wunderground v.1.15,2013-06-07 15:27:00,
2013-06-07 11:33:00,59.2,59.2,29.89,East,98,1.0,2.0,100,0.05,,,0.62,Wunderground v.1.15,2013-06-07 15:33:00,
2013-06-07 11:38:00,59.3,59.3,29.89,ESE,123,1.0,3.0,100,0.05,,,0.63,Wunderground v.1.15,2013-06-07 15:38:00,
2013-06-07 11:43:00,59.3,59.3,29.89,East,98,1.0,1.0,100,0.05,,,0.63,Wunderground v.1.15,2013-06-07 15:43:00,
2013-06-07 11:48:00,59.3,59.3,29.88,East,97,1.0,4.0,100,0.04,,,0.63,Wunderground v.1.15,2013-06-07 15:48:00,
2013-06-07 11:53:00,59.3,59.3,29.88,West,275,1.0,2.0,100,0.04,,,0.64,Wunderground v.1.15,2013-06-07 15:53:00,
2013-06-07 11:58:00,59.4,59.4,29.88,ESE,116,0.0,2.0,100,0.04,,,0.64,Wunderground v.1.15,2013-06-07 15:58:00,
2013-06-07 12:04:00,59.6,59.6,29.88,ESE,119,0.0,0.0,100,0.06,,,0.65,Wunderground v.1.15,2013-06-07 16:04:00,
2013-06-07 12:09:00,59.6,59.6,29.88,ESE,111,0.0,2.0,100,0.08,,,0.66,Wunderground v.1.15,2013-06-07 16:09:00,
2013-06-07 12:14:00,59.6,59.6,29.88,NE,46,1.0,4.0,100,0.09,,,0.67,Wunderground v.1.15,2013-06-07 16:14:00,
2013-06-07 12:19:00,59.5,59.5,29.87,WNW,293,1.0,4.0,100,0.09,,,0.67,Wunderground v.1.15,2013-06-07 16:19:00,
2013-06-07 12:24:00,59.5,59.5,29.87,SSE,158,1.0,3.0,100,0.09,,,0.68,Wunderground v.1.15,2013-06-07 16:24:00,
2013-06-07 12:29:00,59.5,59.5,29.87,SSW,211,1.0,3.0,100,0.12,,,0.69,Wunderground v.1.15,2013-06-07 16:29:00,
2013-06-07 12:34:00,59.5,59.5,29.87,East,101,1.0,3.0,100,0.12,,,0.70,Wunderground v.1.15,2013-06-07 16:34:00,
2013-06-07 12:39:00,59.6,59.6,29.87,South,176,1.0,3.0,100,0.11,,,0.71,Wunderground v.1.15,2013-06-07 16:39:00,
2013-06-07 12:46:00,59.7,59.7,29.87,NE,55,1.0,2.0,100,0.11,,,0.72,Wunderground v.1.15,2013-06-07 16:46:00,
2013-06-07 12:52:00,59.7,59.7,29.87,ESE,117,0.0,2.0,100,0.10,,,0.73,Wunderground v.1.15,2013-06-07 16:52:00,
2013-06-07 12:58:00,59.7,59.7,29.87,SSE,155,1.0,2.0,100,0.17,,,0.75,Wunderground v.1.15,2013-06-07 16:58:00,
2013-06-07 13:03:00,59.7,59.7,29.87,WSW,245,0.0,1.0,100,0.16,,,0.76,Wunderground v.1.15,2013-06-07 17:03:00,
2013-06-07 13:09:00,59.8,59.8,29.87,East,79,0.0,1.0,100,0.81,,,0.79,Wunderground v.1.15,2013-06-07 17:09:00,
2013-06-07 13:14:00,59.8,59.8,29.86,West,266,0.0,1.0,100,0.35,,,0.82,Wunderground v.1.15,2013-06-07 17:14:00,
2013-06-07 13:20:00,59.7,59.7,29.86,SW,215,1.0,1.0,100,0.23,,,0.85,Wunderground v.1.15,2013-06-07 17:20:00,
2013-06-07 13:25:00,59.7,59.7,29.86,South,191,1.0,3.0,100,0.14,,,0.86,Wunderground v.1.15,2013-06-07 17:25:00,
2013-06-07 13:31:00,59.8,59.8,29.86,ESE,105,1.0,1.0,100,0.16,,,0.87,Wunderground v.1.15,2013-06-07 17:31:00,
2013-06-07 13:36:00,59.8,59.8,29.86,East,90,1.0,3.0,100,0.11,,,0.88,Wunderground v.1.15,2013-06-07 17:36:00,
2013-06-07 13:41:00,59.8,59.8,29.86,East,82,1.0,1.0,100,0.08,,,0.89,Wunderground v.1.15,2013-06-07 17:41:00,
2013-06-07 13:46:00,59.7,59.7,29.86,East,95,0.0,1.0,100,0.08,,,0.89,Wunderground v.1.15,2013-06-07 17:46:00,
2013-06-07 13:52:00,59.7,59.7,29.86,NNW,331,1.0,3.0,100,0.07,,,0.90,Wunderground v.1.15,2013-06-07 17:52:00,
2013-06-07 13:57:00,59.6,59.6,29.85,East,81,1.0,3.0,100,0.13,,,0.91,Wunderground v.1.15,2013-06-07 17:57:00,
2013-06-07 14:05:00,59.3,59.0,29.85,SE,130,1.0,2.0,99,0.09,,,0.92,Wunderground v.1.15,2013-06-07 18:05:00,
2013-06-07 14:10:00,59.2,59.2,29.85,WNW,286,1.0,3.0,100,0.13,,,0.93,Wunderground v.1.15,2013-06-07 18:10:00,
2013-06-07 14:16:00,59.1,59.1,29.85,East,84,0.0,3.0,100,0.19,,,0.95,Wunderground v.1.15,2013-06-07 18:16:00,
2013-06-07 14:21:00,59.0,59.0,29.85,South,173,0.0,0.0,100,0.10,,,0.96,Wunderground v.1.15,2013-06-07 18:21:00,
2013-06-07 14:27:00,59.0,59.0,29.85,West,265,1.0,3.0,100,0.11,,,0.97,Wunderground v.1.15,2013-06-07 18:27:00,
2013-06-07 14:32:00,58.9,58.9,29.85,South,188,1.0,1.0,100,0.10,,,0.98,Wunderground v.1.15,2013-06-07 18:32:00,
2013-06-07 14:37:00,58.8,58.8,29.85,NE,55,0.0,2.0,100,0.10,,,0.99,Wunderground v.1.15,2013-06-07 18:37:00,
2013-06-07 14:42:00,58.8,58.8,29.85,ENE,67,0.0,1.0,100,0.12,,,1.00,Wunderground v.1.15,2013-06-07 18:42:00,
2013-06-07 14:48:00,58.8,58.8,29.84,SE,144,1.0,2.0,100,0.13,,,1.01,Wunderground v.1.15,2013-06-07 18:48:00,
2013-06-07 14:53:00,58.8,58.8,29.84,ENE,68,0.0,1.0,100,0.10,,,1.02,Wunderground v.1.15,2013-06-07 18:53:00,
2013-06-07 14:59:00,58.8,58.8,29.84,ENE,68,0.0,1.0,100,0.16,,,1.03,Wunderground v.1.15,2013-06-07 18:59:00,
2013-06-07 15:05:00,58.8,58.8,29.84,East,92,0.0,0.0,100,0.20,,,1.05,Wunderground v.1.15,2013-06-07 19:05:00,
2013-06-07 15:10:00,58.7,58.7,29.84,SW,221,0.0,1.0,100,0.15,,,1.06,Wunderground v.1.15,2013-06-07 19:10:00,
2013-06-07 15:15:00,58.7,58.7,29.84,South,182,0.0,2.0,100,0.10,,,1.07,Wunderground v.1.15,2013-06-07 19:15:00,
2013-06-07 15:21:00,58.7,58.7,29.83,SW,236,0.0,0.0,100,0.11,,,1.08,Wunderground v.1.15,2013-06-07 19:21:00,
2013-06-07 15:26:00,58.7,58.7,29.83,NNW,327,0.0,0.0,100,0.10,,,1.09,Wunderground v.1.15,2013-06-07 19:26:00,
2013-06-07 15:32:00,58.6,58.6,29.82,NW,325,0.0,2.0,100,0.08,,,1.09,Wunderground v.1.15,2013-06-07 19:32:00,
2013-06-07 15:38:00,58.6,58.6,29.82,North,9,1.0,2.0,100,0.06,,,1.10,Wunderground v.1.15,2013-06-07 19:38:00,
2013-06-07 15:43:00,58.6,58.6,29.82,WSW,251,0.0,0.0,100,0.09,,,1.11,Wunderground v.1.15,2013-06-07 19:43:00,
2013-06-07 15:48:00,58.7,58.7,29.82,NW,304,0.0,3.0,100,0.09,,,1.11,Wunderground v.1.15,2013-06-07 19:48:00,
2013-06-07 15:53:00,58.7,58.7,29.82,WSW,239,0.0,1.0,100,0.08,,,1.12,Wunderground v.1.15,2013-06-07 19:53:00,
2013-06-07 15:58:00,58.7,58.7,29.81,NNE,15,0.0,4.0,100,0.08,,,1.13,Wunderground v.1.15,2013-06-07 19:58:00,
2013-06-07 16:03:00,58.7,58.7,29.81,North,360,1.0,1.0,100,0.08,,,1.13,Wunderground v.1.15,2013-06-07 20:03:00,
2013-06-07 16:09:00,58.7,58.7,29.81,NE,43,1.0,3.0,100,0.16,,,1.15,Wunderground v.1.15,2013-06-07 20:09:00,
2013-06-07 16:14:00,58.7,58.7,29.81,SE,134,0.0,2.0,100,0.13,,,1.16,Wunderground v.1.15,2013-06-07 20:14:00,
2013-06-07 16:20:00,58.7,58.7,29.81,NE,55,0.0,1.0,100,0.09,,,1.17,Wunderground v.1.15,2013-06-07 20:20:00,
2013-06-07 16:25:00,58.7,58.7,29.80,East,92,0.0,1.0,100,0.09,,,1.17,Wunderground v.1.15,2013-06-07 20:25:00,
2013-06-07 16:30:00,58.7,58.7,29.80,West,263,0.0,0.0,100,0.08,,,1.18,Wunderground v.1.15,2013-06-07 20:30:00,
2013-06-07 16:36:00,58.7,58.7,29.80,West,262,0.0,1.0,100,0.11,,,1.19,Wunderground v.1.15,2013-06-07 20:36:00,
2013-06-07 16:42:00,58.6,58.6,29.80,North,355,0.0,0.0,100,0.07,,,1.20,Wunderground v.1.15,2013-06-07 20:42:00,
2013-06-07 16:47:00,58.6,58.6,29.79,NNW,348,0.0,2.0,100,0.23,,,1.22,Wunderground v.1.15,2013-06-07 20:47:00,
2013-06-07 16:52:00,58.6,58.6,29.79,ESE,105,0.0,1.0,100,0.31,,,1.25,Wunderground v.1.15,2013-06-07 20:52:00,
2013-06-07 16:57:00,58.6,58.6,29.78,NE,37,1.0,3.0,100,0.26,,,1.28,Wunderground v.1.15,2013-06-07 20:57:00,
2013-06-07 17:04:00,58.6,58.6,29.77,West,274,1.0,2.0,100,0.40,,,1.31,Wunderground v.1.15,2013-06-07 21:04:00,
2013-06-07 17:09:00,58.6,58.6,29.77,WSW,238,1.0,2.0,100,0.20,,,1.33,Wunderground v.1.15,2013-06-07 21:09:00,
2013-06-07 17:15:00,58.6,58.6,29.76,South,186,0.0,1.0,100,0.15,,,1.34,Wunderground v.1.15,2013-06-07 21:15:00,
2013-06-07 17:20:00,58.6,58.6,29.76,North,360,0.0,0.0,100,0.20,,,1.36,Wunderground v.1.15,2013-06-07 21:20:00,
2013-06-07 17:26:00,58.6,58.6,29.76,SE,138,1.0,2.0,100,0.31,,,1.39,Wunderground v.1.15,2013-06-07 21:26:00,
2013-06-07 17:31:00,58.6,58.6,29.76,South,169,1.0,2.0,100,0.25,,,1.41,Wunderground v.1.15,2013-06-07 21:31:00,
2013-06-07 17:36:00,58.7,58.7,29.76,NW,306,1.0,2.0,100,0.26,,,1.43,Wunderground v.1.15,2013-06-07 21:36:00,
2013-06-07 17:42:00,58.7,58.7,29.75,ESE,118,0.0,2.0,100,0.33,,,1.46,Wunderground v.1.15,2013-06-07 21:42:00,
2013-06-07 17:48:00,58.8,58.8,29.73,SE,139,0.0,2.0,100,0.25,,,1.49,Wunderground v.1.15,2013-06-07 21:48:00,
2013-06-07 17:54:00,58.8,58.8,29.74,NNE,32,0.0,1.0,100,0.31,,,1.52,Wunderground v.1.15,2013-06-07 21:54:00,
2013-06-07 17:59:00,58.9,58.9,29.73,WNW,293,1.0,3.0,100,0.21,,,1.54,Wunderground v.1.15,2013-06-07 21:59:00,
2013-06-07 18:04:00,59.1,59.1,29.74,West,260,1.0,1.0,100,0.14,,,1.55,Wunderground v.1.15,2013-06-07 22:04:00,
2013-06-07 18:10:00,59.3,59.3,29.74,SE,142,1.0,1.0,100,0.06,,,1.55,Wunderground v.1.15,2013-06-07 22:10:00,
2013-06-07 18:15:00,59.4,59.4,29.75,NNW,331,1.0,1.0,100,0.04,,,1.55,Wunderground v.1.15,2013-06-07 22:15:00,
2013-06-07 18:21:00,59.4,59.4,29.75,NE,44,1.0,1.0,100,0.00,,,1.56,Wunderground v.1.15,2013-06-07 22:21:00,
2013-06-07 18:26:00,59.4,59.4,29.75,North,350,1.0,3.0,100,0.00,,,1.56,Wunderground v.1.15,2013-06-07 22:26:00,
2013-06-07 18:31:00,59.5,59.5,29.74,West,261,1.0,1.0,100,0.00,,,1.56,Wunderground v.1.15,2013-06-07 22:31:00,
2013-06-07 18:39:00,59.5,59.5,29.75,West,274,1.0,4.0,100,0.00,,,1.56,Wunderground v.1.15,2013-06-07 22:39:00,
2013-06-07 18:44:00,59.5,59.5,29.75,West,274,1.0,1.0,100,0.00,,,1.56,Wunderground v.1.15,2013-06-07 22:44:00,
2013-06-07 18:49:00,59.4,59.4,29.74,North,355,1.0,5.0,100,0.00,,,1.56,Wunderground v.1.15,2013-06-07 22:49:00,
2013-06-07 18:56:00,59.4,59.4,29.73,SE,134,1.0,3.0,100,0.00,,,1.57,Wunderground v.1.15,2013-06-07 22:56:00,
2013-06-07 19:01:00,59.4,59.4,29.73,South,182,1.0,1.0,100,0.20,,,1.59,Wunderground v.1.15,2013-06-07 23:01:00,
2013-06-07 19:07:00,59.4,59.4,29.74,NW,325,0.0,4.0,100,0.13,,,1.60,Wunderground v.1.15,2013-06-07 23:07:00,
2013-06-07 19:14:00,59.4,59.4,29.74,SSE,166,0.0,1.0,100,0.16,,,1.62,Wunderground v.1.15,2013-06-07 23:14:00,
2013-06-07 19:19:00,59.4,59.4,29.74,NNE,13,1.0,3.0,100,0.15,,,1.63,Wunderground v.1.15,2013-06-07 23:19:00,
2013-06-07 19:25:00,59.4,59.4,29.73,NE,40,1.0,1.0,100,0.12,,,1.64,Wunderground v.1.15,2013-06-07 23:25:00,
2013-06-07 19:30:00,59.3,59.3,29.73,South,172,1.0,1.0,100,0.10,,,1.65,Wunderground v.1.15,2013-06-07 23:30:00,
2013-06-07 19:36:00,59.4,59.4,29.73,SSW,198,1.0,1.0,100,0.12,,,1.66,Wunderground v.1.15,2013-06-07 23:36:00,
2013-06-07 19:44:00,59.4,59.4,29.71,NE,48,1.0,3.0,100,0.05,,,1.67,Wunderground v.1.15,2013-06-07 23:44:00,
2013-06-07 19:49:00,59.4,59.4,29.72,SSE,166,1.0,3.0,100,0.05,,,1.67,Wunderground v.1.15,2013-06-07 23:49:00,
2013-06-07 19:55:00,59.4,59.4,29.72,WSW,243,1.0,1.0,100,0.05,,,1.67,Wunderground v.1.15,2013-06-07 23:55:00,
2013-06-07 20:00:00,59.4,59.4,29.72,West,265,1.0,1.0,100,0.00,,,1.67,Wunderground v.1.15,2013-06-08 00:00:00,
2013-06-07 20:05:00,59.4,59.4,29.73,NE,43,1.0,2.0,100,0.00,,,1.67,Wunderground v.1.15,2013-06-08 00:05:00,
2013-06-07 20:11:00,59.4,59.4,29.72,East,84,0.0,1.0,100,0.00,,,1.68,Wunderground v.1.15,2013-06-08 00:11:00,
2013-06-07 20:16:00,59.4,59.4,29.73,ESE,109,0.0,3.0,100,0.81,,,1.71,Wunderground v.1.15,2013-06-08 00:16:00,
2013-06-07 20:22:00,59.4,59.4,29.72,ENE,60,1.0,1.0,100,0.13,,,1.73,Wunderground v.1.15,2013-06-08 00:22:00,
2013-06-07 20:29:00,59.3,59.3,29.72,NNW,337,0.0,1.0,100,0.46,,,1.77,Wunderground v.1.15,2013-06-08 00:29:00,
2013-06-07 20:34:00,59.3,59.3,29.72,NW,304,0.0,2.0,100,1.52,,,1.83,Wunderground v.1.15,2013-06-08 00:34:00,
2013-06-07 20:39:00,59.2,59.2,29.72,West,272,1.0,2.0,100,0.44,,,1.90,Wunderground v.1.15,2013-06-08 00:39:00,
2013-06-07 20:45:00,59.2,59.2,29.70,NW,314,2.0,10.0,100,0.23,,,1.94,Wunderground v.1.15,2013-06-08 00:45:00,
2013-06-07 20:51:00,59.2,59.2,29.70,NNW,329,2.0,5.0,100,0.15,,,1.95,Wunderground v.1.15,2013-06-08 00:51:00,
2013-06-07 20:56:00,59.2,59.2,29.71,NNW,339,1.0,5.0,100,0.07,,,1.95,Wunderground v.1.15,2013-06-08 00:56:00,
2013-06-07 21:01:00,59.2,59.2,29.71,SSE,158,1.0,1.0,100,0.76,,,1.97,Wunderground v.1.15,2013-06-08 01:01:00,
2013-06-07 21:07:00,59.2,59.2,29.70,NNW,331,1.0,2.0,100,1.30,,,2.07,Wunderground v.1.15,2013-06-08 01:07:00,
2013-06-07 21:12:00,59.1,59.1,29.70,North,5,1.0,1.0,100,0.44,,,2.14,Wunderground v.1.15,2013-06-08 01:12:00,
2013-06-07 21:19:00,59.1,59.1,29.70,ENE,70,1.0,1.0,100,0.43,,,2.23,Wunderground v.1.15,2013-06-08 01:19:00,
2013-06-07 21:24:00,59.1,59.1,29.71,NNW,336,1.0,1.0,100,0.42,,,2.27,Wunderground v.1.15,2013-06-08 01:24:00,
2013-06-07 21:29:00,59.0,59.0,29.71,WNW,287,0.0,1.0,100,2.91,,,2.32,Wunderground v.1.15,2013-06-08 01:29:00,
2013-06-07 21:35:00,59.0,59.0,29.70,NE,44,0.0,1.0,100,0.42,,,2.40,Wunderground v.1.15,2013-06-08 01:35:00,
2013-06-07 21:41:00,59.0,59.0,29.71,NW,324,1.0,1.0,100,0.26,,,2.43,Wunderground v.1.15,2013-06-08 01:41:00,
2013-06-07 21:47:00,59.0,59.0,29.70,NNW,338,1.0,1.0,100,0.31,,,2.45,Wunderground v.1.15,2013-06-08 01:47:00,
2013-06-07 21:52:00,58.9,58.9,29.70,South,181,1.0,1.0,100,0.13,,,2.46,Wunderground v.1.15,2013-06-08 01:52:00,
2013-06-07 21:58:00,58.9,58.9,29.70,NNE,25,1.0,2.0,100,0.09,,,2.47,Wunderground v.1.15,2013-06-08 01:58:00,
2013-06-07 22:03:00,58.9,58.9,29.70,NW,306,1.0,7.0,100,0.13,,,2.48,Wunderground v.1.15,2013-06-08 02:03:00,
2013-06-07 22:09:00,58.8,58.8,29.69,NW,315,2.0,7.0,100,0.09,,,2.49,Wunderground v.1.15,2013-06-08 02:09:00,
2013-06-07 22:14:00,58.7,58.7,29.68,North,9,1.0,3.0,100,0.12,,,2.50,Wunderground v.1.15,2013-06-08 02:14:00,
2013-06-07 22:19:00,58.6,58.6,29.68,ENE,71,2.0,3.0,100,0.12,,,2.50,Wunderground v.1.15,2013-06-08 02:19:00,
2013-06-07 22:25:00,58.6,58.6,29.68,North,355,2.0,6.0,100,0.52,,,2.53,Wunderground v.1.15,2013-06-08 02:25:00,
2013-06-07 22:31:00,58.5,58.5,29.68,ENE,65,1.0,2.0,100,0.11,,,2.54,Wunderground v.1.15,2013-06-08 02:31:00,
2013-06-07 22:36:00,58.5,58.5,29.69,NW,315,2.0,4.0,100,0.11,,,2.55,Wunderground v.1.15,2013-06-08 02:36:00,
2013-06-07 22:42:00,58.4,58.4,29.68,NNW,343,1.0,2.0,100,0.22,,,2.57,Wunderground v.1.15,2013-06-08 02:42:00,
2013-06-07 22:47:00,58.3,58.3,29.67,North,355,2.0,7.0,100,0.11,,,2.58,Wunderground v.1.15,2013-06-08 02:47:00,
2013-06-07 22:52:00,58.3,58.3,29.68,WSW,252,2.0,2.0,100,0.28,,,2.60,Wunderground v.1.15,2013-06-08 02:52:00,
2013-06-07 22:57:00,58.2,58.2,29.68,North,350,1.0,2.0,100,0.76,,,2.64,Wunderground v.1.15,2013-06-08 02:57:00,
2013-06-07 23:04:00,58.1,58.1,29.67,NNW,344,1.0,4.0,100,0.67,,,2.77,Wunderground v.1.15,2013-06-08 03:04:00,
2013-06-07 23:09:00,58.0,58.0,29.67,NNW,327,2.0,8.0,100,0.44,,,2.80,Wunderground v.1.15,2013-06-08 03:09:00,
2013-06-07 23:14:00,57.9,57.9,29.67,NE,39,2.0,3.0,100,0.22,,,2.83,Wunderground v.1.15,2013-06-08 03:14:00,
2013-06-07 23:21:00,57.8,57.8,29.66,NNW,341,1.0,6.0,100,0.11,,,2.84,Wunderground v.1.15,2013-06-08 03:21:00,
2013-06-07 23:26:00,57.7,57.7,29.66,NNE,17,2.0,6.0,100,0.07,,,2.84,Wunderground v.1.15,2013-06-08 03:26:00,
2013-06-07 23:31:00,57.6,57.6,29.66,NNW,342,2.0,4.0,100,0.04,,,2.84,Wunderground v.1.15,2013-06-08 03:31:00,
2013-06-07 23:36:00,57.5,57.5,29.65,North,350,2.0,5.0,100,0.04,,,2.85,Wunderground v.1.15,2013-06-08 03:36:00,
2013-06-07 23:41:00,57.5,57.5,29.65,NNE,13,2.0,2.0,100,0.04,,,2.85,Wunderground v.1.15,2013-06-08 03:41:00,
2013-06-07 23:47:00,57.4,57.4,29.65,North,355,2.0,4.0,100,0.04,,,2.85,Wunderground v.1.15,2013-06-08 03:47:00,
2013-06-07 23:52:00,57.3,57.3,29.65,ENE,57,1.0,2.0,100,0.04,,,2.86,Wunderground v.1.15,2013-06-08 03:52:00,
2013-06-07 23:57:00,57.2,57.2,29.65,NNW,327,2.0,9.0,100,0.04,,,2.86,Wunderground v.1.15,2013-06-08 03:57:00,